Flag for United Kingdom Weather past 2 weeks in Eastbourne, England, United Kingdom

Now
71 °F

Mild.


Feels Like: 73 °F
Forecast: 56 / 66 °F
Wind: 6 mph from Northeast

Location: Herstmonceux

Current Time: Aug 30, 2015 at 1:15:31 PM

Latest Report: Aug 30, 2015 at 12:00 PM


Visibility: 15 mi

Pressure: 30.02 "Hg

Humidity: 74%

Dew point: 62 °F

Location of EastbourneLocation

Historic Weather in Eastbourne — Graph

°F

Eastbourne temperature yesterday

Maximum temperature yesterday: 68 °F (at 5:00 PM)
Minimum temperature yesterday: 53 °F (at 5:00 AM)
Average temperature yesterday: 62 °F

Past Weeks' High & Low Weather Summary

 TemperatureHumidityPressure
High83 °F (Aug 22, 5:00 PM)100% (Aug 19, 4:00 AM)30.18 "Hg (Aug 19, 4:00 AM)
Low50 °F (Aug 28, 6:00 AM)41% (Aug 17, 4:00 PM)29.35 "Hg (Aug 24, 3:00 PM)
Average62 °F83%29.91 "Hg
* Reported Aug 15 12:00 Noon — Aug 30 12:00 Noon, Eastbourne, Weather by CustomWeather, © 2015

Note: Actual official high and low records may vary slightly from our data, if they occured in-between our weather recording intervals... More about our weather records

Advertising

Eastbourne weather history for previous 24 hours

 ConditionsComfort  
Time TempWeatherWind HumidityBarometerVisibility
12:00 PM
Sun, Aug 30
71 °FMild.6 mph74%30.02 "Hg15 mi
11:00 AM68 °FMild.6 mph78%30.02 "Hg22 mi
10:00 AM67 °FMild.7 mph78%30.01 "Hg22 mi
9:00 AM64 °FMild.6 mph85%30.02 "Hg19 mi
8:00 AM62 °FMild.5 mph89%30.02 "Hg28 mi
7:00 AM61 °FCool.6 mph93%30.01 "Hg13 mi
6:00 AM61 °FCool.7 mph95%30.01 "Hg7 mi
5:00 AM62 °FCool.7 mph90%30.02 "Hg12 mi
4:00 AM61 °FCool.6 mph89%30.01 "Hg12 mi
3:00 AM62 °FCool.6 mph84%30.02 "Hg16 mi
2:00 AM62 °FCool.5 mph87%30.03 "Hg14 mi
1:00 AM61 °FCool.8 mph90%30.04 "Hg12 mi
12:00 AM62 °FCool.5 mph81%30.06 "Hg28 mi
11:00 PM
Sat, Aug 29
62 °FCool.5 mph83%30.06 "Hg25 mi
9:00 PM63 °FMild.3 mph81%30.07 "Hg31 mi
8:00 PM63 °FMild.5 mph83%30.07 "Hg25 mi
6:00 PM66 °FMild.5 mph76%30.06 "Hg28 mi
5:00 PM68 °FMild.1 mph72%30.08 "Hg28 mi
Weather by CustomWeather, © 2015

See weather overviewHow to use our weather pages